カタログに戻る

CZ-6A DEB

運用中SSO
NORAD 54989·DEBRIS·🇨🇳 China

打ち上げ Nov 11, 2022 から Taiyuan Satellite Launch Center

Loading…

次のパス (今後24時間)

TLE

最新Source: Space-Track

元期: Sep 14, 2026, 00:14 UTC

1 54989U 22151UE  26257.01037033  .00000732  00000-0  32701-3 0  9993
2 54989  98.7544 276.9752 0068833  85.2781 275.6255 14.24458358197981

AllMySatでCZ-6A DEBをリアルタイム追跡

Download on the App Store